Flag for Canada Weather past 2 weeks in Rouyn-Noranda, Quebec, Canada

Now
50 °F

Passing clouds.


Feels Like: 50 °F
Forecast: 50 / 69 °F
Wind: No wind

Location: Rouyn Airport

Current Time: Aug 2, 2014 at 2:54:34 AM

Latest Report: Aug 2, 2014 at 2:00 AM


Visibility: 15 mi

Pressure: 30.15 "Hg

Humidity: 100%

Dew point: 50 °F

Location of Rouyn-NorandaLocation

Historic Weather in Rouyn-Noranda — Graph

°F

Rouyn-Noranda temperature yesterday

Maximum temperature yesterday: 64 °F (at 2:00 PM)
Minimum temperature yesterday: 54 °F (at 3:00 AM)
Average temperature yesterday: 58 °F

Past Weeks' High & Low Weather Summary

 TemperatureHumidityPressure
High79 °F (Jul 18, 5:00 PM)100% (Jul 21, 2:00 AM)30.20 "Hg (Jul 21, 2:00 AM)
Low43 °F (Jul 24, 12:00 AM)39% (Jul 19, 2:00 PM)29.67 "Hg (Jul 22, 10:00 PM)
Average61 °F77%29.94 "Hg
* Reported Jul 18 1:00 AM — Aug 2 1:00 AM, Rouyn-Noranda, Weather by CustomWeather, © 2014

Note: Actual official high and low records may vary slightly from our data, if they occured in-between our weather recording intervals... More about our weather records

Advertising

Rouyn-Noranda weather history for previous 24 hours

 ConditionsComfort  
Time TempWeatherWind HumidityBarometerVisibility
1:00 AM
Aug 2
50 °FPassing clouds.2 mph100%30.15 "Hg15 mi
12:00 AM54 °FClear.No wind94%30.14 "Hg15 mi
11:00 PM
Aug 1
55 °FPassing clouds.No wind94%30.14 "Hg15 mi
10:00 PM57 °FPassing clouds.No wind94%30.15 "Hg15 mi
9:00 PM61 °FPartly sunny.2 mph83%30.14 "Hg15 mi
8:00 PM61 °FBroken clouds.3 mph83%30.12 "Hg15 mi
7:00 PM64 °FPartly sunny.5 mph73%30.11 "Hg15 mi
6:00 PM64 °FPartly sunny.6 mph73%30.11 "Hg15 mi
5:00 PM63 °FPartly sunny.3 mph77%30.11 "Hg15 mi
4:00 PM61 °FSprinkles. Partly sunny.9 mph83%30.10 "Hg12 mi
3:00 PM59 °FSprinkles. Partly sunny.7 mph88%30.10 "Hg10 mi
2:45 PM63 °FSprinkles. Partly sunny.8 mph73%30.09 "Hg12 mi
2:00 PM64 °FBroken clouds.13 mph68%30.08 "Hg15 mi
1:00 PM63 °FBroken clouds.14 mph73%30.08 "Hg15 mi
12:00 PM61 °FScattered showers. Mostly cloudy.8 mph72%30.07 "Hg15 mi
11:00 AM59 °FSprinkles. Mostly cloudy.6 mph82%30.06 "Hg15 mi
10:47 AM59 °FSprinkles. Partly sunny.6 mph82%30.06 "Hg15 mi
10:00 AM57 °FSprinkles. Mostly cloudy.10 mph88%30.05 "Hg8 mi
9:00 AM55 °FSprinkles. Mostly cloudy.7 mph94%30.05 "Hg15 mi
8:00 AM54 °FSprinkles. Mostly cloudy.7 mph100%30.03 "Hg10 mi
7:00 AM54 °FSprinkles. Mostly cloudy.6 mph100%30.01 "Hg10 mi
6:00 AM54 °FSprinkles. Overcast.6 mph100%29.98 "Hg10 mi
5:00 AM54 °FSprinkles. Mostly cloudy.6 mph100%29.97 "Hg15 mi
4:00 AM54 °FSprinkles. Mostly cloudy.7 mph100%29.96 "Hg15 mi
3:00 AM54 °FSprinkles. Overcast.8 mph100%29.94 "Hg15 mi
2:00 AM55 °FSprinkles. Overcast.7 mph94%29.94 "Hg15 mi
Weather by CustomWeather, © 2014

See weather overviewHow to use our weather pages